www.pogodaiklimat.ru
ПОГОДА на Платформе Euro Platform
Время
(UTC), дата
13 11.01
14 11.01
15 11.01
16 11.01
17 11.01
18 11.01
19 11.01
20 11.01
21 11.01
22 11.01
23 11.01
00 12.01
01 12.01
02 12.01
03 12.01
04 12.01
05 12.01
06 12.01
07 12.01
08 12.01
09 12.01
10 12.01
11 12.01
12 12.01
13 12.01
14 12.01
15 12.01
16 12.01
17 12.01
18 12.01
19 12.01
20 12.01
21 12.01
22 12.01
23 12.01
00 13.01
01 13.01
02 13.01
03 13.01
04 13.01
05 13.01
06 13.01
07 13.01
08 13.01
09 13.01
10 13.01
11 13.01
12 13.01
13 13.01
14 13.01
15 13.01
16 13.01
17 13.01
18 13.01
19 13.01
20 13.01
21 13.01
22 13.01
23 13.01
00 14.01
01 14.01
02 14.01
03 14.01
04 14.01
05 14.01
06 14.01
07 14.01
08 14.01
09 14.01
10 14.01
11 14.01
12 14.01
13 14.01
14 14.01
15 14.01
16 14.01
17 14.01
18 14.01
19 14.01
20 14.01
21 14.01
22 14.01
23 14.01
00 15.01
01 15.01
02 15.01
03 15.01
04 15.01
05 15.01
06 15.01
07 15.01
08 15.01
09 15.01
10 15.01
11 15.01
12 15.01
13 15.01
14 15.01
15 15.01
16 15.01
17 15.01
18 15.01
19 15.01
20 15.01
21 15.01
22 15.01
23 15.01
00 16.01
01 16.01
02 16.01
03 16.01
04 16.01
05 16.01
06 16.01
07 16.01
08 16.01
09 16.01
10 16.01
11 16.01
12 16.01
13 16.01
14 16.01
15 16.01
16 16.01
17 16.01
18 16.01
19 16.01
20 16.01
21 16.01
22 16.01
23 16.01
00 17.01
01 17.01
02 17.01
03 17.01
04 17.01
05 17.01
06 17.01
07 17.01
08 17.01
09 17.01
10 17.01
11 17.01
12 17.01
13 17.01
14 17.01
15 17.01
16 17.01
17 17.01
18 17.01
19 17.01
20 17.01
21 17.01
22 17.01
23 17.01
00 18.01
01 18.01
02 18.01
03 18.01
04 18.01
05 18.01
06 18.01
07 18.01
08 18.01
09 18.01
10 18.01
11 18.01
12 18.01
Ветер
(напр.,м/с)
Видим. Явления Облачность Т
(С)
Тd
(С)
f
(%)
Тe
(С)
Тes
(С)
Комфортность P
(гПа)
Po
(гПа)
Тmin
(С)
Tmax
(С)
R
(мм)
R24
(мм)
S
(см)
ЮЗ 13-16
{16}
40 км н/о +7.3 +2.5 72 +1 +1 1015.3 1013.3
З 12-14
{16}
35 км н/о +7.1 +3.4 77 +1 +1 1014.7 1012.6
ЮЗ 13-16
{16}
30 км н/о +7.4 +3.0 74 +1 +1 1014.5 1012.4
ЮЗ 12-14
{15}
30 км н/о +7.7 +3.3 74 +2 +2 1013.8 1011.6
ЮЗ 13-17
{17}
25 км н/о +8.1 +4.3 77 +2 +2 1013.1 1010.9
ЮЗ 13-15
{17}
16 км осадки {дымка} н/о +8.5 +5.5 81 +3 +3 1012.3 1010.2 +8.5
ЮЗ 12-15
{16}
10 км дождь {морось} н/о +8.6 +6.1 84 +3 +3 1012.2 1010.1
ЮЗ 13-15
{16}
20 км в посл. час дождь {морось} н/о +8.8 +5.9 82 +3 +3 1011.5 1009.4
ЮЗ 13-16
{17}
5000 м дождь {морось} н/о +8.4 +6.6 88 +3 +3 1010.8 1008.7
ЮЗ 13-15
{16}
7000 м дождь {морось} н/о +8.3 +6.7 90 +2 +2 1010.0 1007.9
ЮЗ 14-16
{17}
6000 м морось {дождь} н/о +8.4 +6.9 90 +2 +2 1009.3 1007.1
ЮЗ 15-18
{18}
9000 м морось {дождь} н/о +8.7 +7.0 89 +3 +3 1008.2 1006.1
ЮЗ 16-19
{20}
10 км морось {дождь} н/о +8.8 +7.2 90 +3 +3 1007.4 1005.3
ЮЗ 15-18
{19}
7000 м дождь {морось} н/о +8.9 +7.5 91 +3 +3 1006.6 1004.5
ЮЗ 15-19
{20}
7000 м морось {дождь} н/о +9.1 +7.6 90 +3 +3 1006.0 1003.8
ЮЗ 15-19
{19}
7000 м морось {дождь} н/о +9.2 +7.9 92 +3 +3 1005.1 1003.1
З 15-18
{19}
8000 м морось {дождь} н/о +8.7 +8.0 95 +3 +3 1004.7 1002.6
З 10-12
{20}
8000 м морось {дождь} н/о +8.3 +6.7 90 +3 +3 1005.0 1002.8 +8.3
СЗ 11-13
{13}
25 км в посл. час морось н/о +8.4 +6.2 86 +3 +3 1005.6 1003.5
СЗ 10-12
{14}
25 км в посл. час морось н/о +7.3 +4.9 85 +2 +2 1007.2 1004.9
СЗ 9-12
{14}
23 км н/о +7.2 +3.9 80 +2 +2 1008.3 1006.1
С 11-13
{13}
30 км в посл. час морось н/о +6.4 +3.5 82 0 0 1009.6 1007.3
СЗ 10-12
{14}
35 км в посл. час морось н/о +6.8 +1.0 66 +1 +1 1010.7 1008.4
СЗ 10-12
{14}
40 км н/о +6.8 -1.1 57 +2 +2 1011.0 1008.8
СЗ 10-13
{13}
35 км н/о +7.1 -1.4 55 +2 +2 1011.4 1009.2
СЗ 10-12
{13}
35 км н/о +7.0 -0.4 59 +2 +2 1012.0 1009.7
СЗ 11-13
{14}
27 км н/о +6.8 +1.5 69 +1 +1 1012.8 1010.6
СЗ 11-14
{15}
29 км н/о +6.4 +2.6 77 0 0 1013.6 1011.4
СЗ 9-12
{14}
25 км н/о +6.7 +2.2 73 +1 +1 1014.5 1012.2
СЗ 10-13
{15}
25 км осадки н/о +6.3 +2.2 75 +1 +1 1015.5 1013.0 +8.5
З 9-11
{12}
30 км в посл. час дождь н/о +5.4 +2.3 80 -1 -1 1016.0 1013.8
СЗ 7-9
{13}
45 км н/о +6.9 -1.3 56 +3 +3 1016.7 1014.5
З 8-9
{13}
26 км н/о +6.6 +1.0 67 +2 +2 1017.1 1014.9
З 8-10
{11}
25 км н/о +6.4 +2.9 78 +1 +1 1017.7 1015.4
З 8-10
{11}
27 км н/о +6.3 +2.5 77 +1 +1 1018.0 1015.8
З 8-10
{13}
29 км н/о +6.4 +2.6 77 +1 +1 1018.2 1016.1
З 9-10
{10}
40 км н/о +6.4 +1.4 70 +1 +1 1018.0 1015.8
З 8-10
{10}
29 км н/о +6.2 +1.9 74 +1 +1 1018.2 1016.0
З 9-11
{11}
30 км н/о +5.9 +1.5 73 0 0 1018.3 1016.2
З 9-11
{11}
45 км н/о +5.9 +0.8 70 0 0 1018.2 1016.1
З 9-10
{11}
40 км н/о +5.9 +0.7 69 0 0 1017.8 1015.7
З 9-11
{11}
35 км н/о +5.7 +1.3 73 0 0 1017.5 1015.4 +5.3
З 9-11
{11}
35 км н/о +5.6 +0.3 69 -0 -0 1017.4 1015.2
З 9-10
{11}
30 км н/о +5.6 +0.7 71 -0 -0 1017.6 1015.4
З 9-11
{11}
35 км н/о +5.8 0.0 66 0 0 1017.3 1015.1
З 9-11
{11}
45 км н/о +5.9 +0.5 68 0 0 1017.3 1015.1
З 8-10
{10}
45 км н/о +6.1 +0.8 69 +1 +1 1016.9 1014.8
З 7-8
{11}
45 км н/о +6.3 +0.6 67 +2 +2 1016.6 1014.5
З 6-8
{8}
40 км н/о +6.1 0.0 65 +2 +2 1016.0 1013.9
З 7-8
{8}
45 км н/о +6.2 -0.2 64 +1 +1 1015.8 1013.7
СЗ 7-8
{9}
45 км н/о +6.1 -0.3 64 +1 +1 1015.7 1013.5
СЗ 7-8
{9}
45 км н/о +6.1 -0.6 62 +1 +1 1015.7 1013.5
СЗ 6-8
{9}
40 км н/о +6.0 +1.3 72 +1 +1 1015.6 1013.3
СЗ 7-8
{9}
40 км н/о +6.1 +2.0 75 +1 +1 1016.1 1013.9 +6.4
СЗ 7-9
{9}
35 км н/о +6.3 +2.5 77 +1 +1 1016.1 1013.9
СЗ 7-9
{9}
30 км н/о +6.3 +2.8 78 +1 +1 1016.4 1014.3
СЗ 7-8
{9}
26 км н/о +6.3 +3.1 80 +1 +1 1016.8 1014.6
СЗ 7-8
{8}
35 км н/о +6.5 +3.5 81 +2 +2 1017.3 1015.1
СЗ 7-8
{8}
30 км н/о +6.5 +4.0 84 +2 +2 1017.9 1015.6
СЗ 5-8
{9}
26 км дождь н/о +7.1 +3.6 78 +3 +3 1017.4 1015.3
С 5-6
{8}
40 км дождь н/о +6.4 +3.2 80 +2 +2 1017.8 1015.6
СВ 6-8
{8}
6000 м дождь {морось} н/о +5.3 +3.1 86 0 0 1017.9 1015.7
В 6-9
{9}
20 км дождь {морось} н/о +4.6 +1.8 82 -1 -1 1018.1 1015.9
В 8-9
{10}
19 км дождь {морось} н/о +3.6 +1.7 87 -3 -3 1018.3 1016.1
СВ 5-7
{9}
15 км дождь {морось} н/о +2.9 +0.3 83 -2 -2 1018.6 1016.4
В 6-8
{10}
45 км в посл. час дождь {морось} н/о +4.1 +0.5 77 -1 -1 1018.4 1016.2 +2.8
В 7-8
{9}
45 км н/о +3.9 -0.1 75 -2 -2 1018.4 1016.1
В 7-8
{8}
45 км н/о +3.9 -0.1 75 -2 -2 1018.8 1016.5
В 8-9
{9}
45 км н/о +3.9 +0.2 77 -2 -2 1018.7 1016.5
В 10-11
{11}
45 км н/о +3.6 -0.2 76 -3 -3 1018.7 1016.5
В 11-13
{13}
45 км н/о +3.9 -0.4 74 -3 -3 1018.3 1016.1
В 11-12
{13}
45 км н/о +3.7 -0.9 72 -3 -3 1018.1 1015.9
В 10-12
{13}
45 км н/о +3.5 -2.5 65 -3 -3 1017.5 1015.4
В 9-12
{12}
45 км н/о +3.7 -2.0 66 -3 -3 1017.3 1015.1
В 9-11
{13}
45 км н/о +3.8 -1.8 67 -2 -2 1017.4 1015.2
В 9-11
{11}
45 км н/о +3.6 -1.5 69 -3 -3 1018.1 1015.9
В 10-12
{12}
45 км н/о +3.5 -0.6 75 -3 -3 1018.7 1016.4
В 10-12
{13}
45 км н/о +3.3 -1.2 72 -4 -4 1019.5 1017.2 +4.4
СВ 9-12
{12}
45 км н/о +3.0 -1.7 71 -4 -4 1020.2 1018.0
СВ 9-12
{12}
45 км н/о +3.0 -1.3 73 -4 -4 1020.8 1018.5
СВ 9-11
{12}
40 км н/о +3.0 -1.2 74 -4 -4 1021.7 1019.5
СВ 8-10
{11}
45 км в посл. час осадки н/о +2.9 -1.0 75 -4 -4 1022.4 1020.1
СВ 9-11
{11}
45 км н/о +3.0 -1.0 75 -4 -4 1023.0 1020.8
СВ 9-11
{13}
45 км н/о +3.3 -1.3 72 -3 -3 1023.7 1021.4
СВ 7-11
{11}
45 км н/о +3.1 -1.7 71 -3 -3 1024.3 1022.0
СВ 7-10
{11}
45 км н/о +3.0 -2.5 67 -3 -3 1025.1 1022.9
СВ 8-10
{11}
45 км н/о +3.1 -1.8 70 -3 -3 1025.7 1023.4
СВ 8-10
{10}
45 км н/о +2.6 -2.8 68 -4 -4 1026.5 1024.2
СВ 8-11
{11}
45 км н/о +2.7 -3.4 64 -4 -4 1026.8 1024.6
СВ 8-11
{12}
45 км н/о +3.1 -3.3 63 -3 -3 1027.3 1025.1 +2.3
СВ 8-9
{11}
45 км н/о +3.1 -3.2 63 -3 -3 1028.1 1025.9
СВ 6-7
{10}
45 км н/о +3.3 -3.2 62 -2 -2 1028.8 1026.5
СВ 4-5
{11}
45 км н/о +3.8 -3.0 61 -0 -0 1029.4 1027.2
СВ 2-3
{4}
45 км н/о +3.9 -2.7 62 +2 +2 1030.1 1027.8
СВ 2-3
{3}
45 км н/о +4.1 -2.9 60 +2 +2 1030.4 1028.2
З 1-2
{11}
45 км н/о +4.5 -2.5 60 +4 +4 1030.5 1028.3
ЮЗ 2-3
{3}
45 км н/о +4.5 -1.9 63 +2 +2 1029.8 1027.7
З 2-3
{3}
45 км н/о +4.8 -1.5 64 +3 +3 1029.8 1027.6
З 2-4
{6}
45 км в посл. час дождь н/о +4.6 0.0 72 +2 +2 1029.9 1027.8
З 3-4
{5}
45 км н/о +4.5 0.0 73 +1 +1 1030.0 1027.9
З 3-4
{4}
45 км н/о +5.0 -0.2 69 +2 +2 1030.2 1028.0
С 5-6
{7}
45 км н/о +5.5 -3.3 53 +2 +2 1030.1 1027.9 +5.6
СВ 5-8
{8}
45 км н/о +5.4 -3.3 53 +1 +1 1030.2 1028.0
В 4-5
{7}
45 км н/о +5.3 -4.3 50 +2 +2 1030.4 1028.2
В 3-4
{8}
45 км н/о +5.4 -4.4 49 +3 +3 1030.3 1028.1
В 3-4
{5}
45 км н/о +5.4 -4.2 50 +3 +3 1030.3 1028.1
ЮВ 4-5
{5}
45 км н/о +5.3 -2.1 59 +2 +2 1029.9 1027.7
ЮЗ 6-7
{8}
45 км н/о +4.6 +0.4 74 -1 -1 1029.5 1027.3
З 2-5
{7}
30 км морось {дождь} н/о +4.3 +1.1 80 +2 +2 1029.0 1026.9
Ю 6-7
{7}
45 км в посл. час морось {дождь} н/о +4.6 +1.0 77 -1 -1 1028.6 1026.4
Ю 8-9
{9}
45 км {дождь, морось} н/о +4.6 0.0 72 -1 -1 1028.0 1025.9
ЮЗ 7-10
{11}
9000 м морось {дождь} н/о +3.5 +0.8 82 -2 -2 1027.4 1025.3
Ю 10-12
{12}
45 км в посл. час морось {дождь} н/о +4.6 -1.0 67 -2 -2 1026.4 1024.3
Ю 10-12
{13}
45 км {дождь, морось} н/о +4.1 -1.9 65 -2 -2 1026.0 1023.9 +3.4
Ю 11-13
{13}
45 км н/о +3.7 -3.2 61 -3 -3 1025.3 1023.2
Ю 12-14
{14}
45 км н/о +3.5 -3.1 62 -4 -4 1024.6 1022.5
Ю 13-15
{16}
45 км н/о +3.4 -3.2 62 -4 -4 1023.9 1021.6
Ю 13-16
{16}
45 км н/о +3.4 -2.5 65 -4 -4 1023.4 1021.3
Ю 14-17
{17}
4600 м снег {осадки} н/о +1.2 -1.9 80 -8 -8 1021.8 1019.7
Ю 14-16
{17}
3700 м дождь {снег, осадки} н/о +0.8 +0.1 95 -8 -8 1020.5 1018.4
Ю 13-15
{16}
2700 м снег {дождь} н/о +1.2 +1.0 99 -8 -8 1019.1 1017.0
Ю 13-16
{16}
4800 м дождь {снег} н/о +1.7 +1.1 96 -7 -7 1017.2 1015.2
Ю 13-15
{16}
2800 м дождь {снег} н/о +2.0 +1.3 95 -7 -7 1016.4 1014.2
Ю 13-15
{15}
8000 м в посл. час дождь н/о +2.4 +1.5 94 -6 -6 1016.0 1013.8
Ю 11-13
{14}
2700 м дождь {снег, морось} н/о +2.8 +2.0 94 -5 -5 1015.9 1013.7
Ю 10-11
{16}
3400 м дождь {снег, морось} н/о +3.2 +2.4 94 -4 -4 1015.5 1013.3 +4.2
Ю 8-10
{11}
11 км в посл. час дождь н/о +3.6 +2.8 94 -3 -3 1015.1 1013.0
Ю 8-9
{10}
12 км {дождь} н/о +4.7 +3.9 95 -1 -1 1015.1 1012.8
З 6-8
{11}
3200 м дождь {осадки} н/о +6.7 +6.5 99 +2 +2 1015.0 1012.8
З 7-8
{8}
8000 м в посл. час дождь {морось} н/о +7.2 +6.5 95 +2 +2 1014.8 1012.6
СЗ 7-9
{9}
9000 м дымка {дождь, осадки} н/о +7.6 +5.8 88 +3 +3 1014.6 1012.4
СЗ 10-13
{13}
26 км {дождь, осадки} н/о +7.9 +5.4 84 +3 +3 1014.9 1012.7
СЗ 10-12
{12}
17 км морось н/о +7.7 +5.2 84 +2 +2 1014.9 1012.6
СЗ 11-13
{13}
23 км в посл. час морось н/о +7.5 +4.2 80 +2 +2 1015.0 1012.8
З 10-12
{13}
21 км {морось, осадки} н/о +7.4 +4.1 80 +2 +2 1015.3 1013.1
З 11-13
{13}
20 км {морось, осадки} н/о +7.1 +3.7 79 +1 +1 1015.4 1013.2
СЗ 11-13
{13}
20 км {морось, осадки} н/о +6.9 +4.0 82 +1 +1 1015.7 1013.4
СЗ 11-13
{13}
23 км {морось, осадки} н/о +7.0 +3.8 80 +1 +1 1016.1 1013.9 +2.9
З 11-13
{13}
22 км н/о +6.9 +3.9 81 +1 +1 1016.6 1014.4
СЗ 11-13
{14}
23 км н/о +6.9 +4.1 82 +1 +1 1017.5 1015.2
СЗ 11-13
{14}
25 км н/о +6.8 +3.5 79 +1 +1 1018.3 1016.1
СЗ 11-13
{13}
26 км в посл. час осадки н/о +7.0 +3.5 78 +1 +1 1019.5 1017.1
СЗ 10-12
{13}
27 км н/о +7.0 +3.5 78 +1 +1 1020.1 1017.9
СЗ 10-11
{14}
29 км н/о +7.1 +4.0 81 +2 +2 1020.6 1018.4
СЗ 10-11
{12}
28 км н/о +6.8 +3.6 80 +1 +1 1020.9 1018.7
СЗ 10-12
{12}
30 км н/о +6.7 +3.7 81 +1 +1 1021.5 1019.3
СЗ 9-11
{12}
29 км н/о +6.7 +3.5 80 +1 +1 1022.3 1020.0
З 8-10
{11}
30 км н/о +6.7 +3.6 81 +2 +2 1022.7 1020.5
З 7-9
{10}
40 км н/о +6.7 +3.2 78 +2 +2 1023.4 1021.1
З 9-11
{12}
40 км н/о +6.8 +2.8 76 +1 +1 1023.9 1021.7 +7.3
З 8-9
{11}
45 км н/о +6.9 +2.4 73 +2 +2 1023.8 1021.6
З 8-9
{10}
45 км н/о +7.0 +2.9 75 +2 +2 1024.0 1021.8
З 7-8
{11}
40 км н/о +7.0 +3.4 78 +2 +2 1023.8 1021.7
З 7-9
{9}
40 км н/о +7.2 +3.4 77 +3 +3 1023.9 1021.7
З 8-9
{10}
27 км н/о +7.2 +4.1 81 +2 +2 1024.2 1022.0
З 8-9
{11}
25 км н/о +7.0 +4.3 83 +2 +2 1023.8 1021.6
З 9-10
{10}
24 км н/о +6.9 +4.2 83 +1 +1 1023.2 1021.0
З 9-10
{11}
28 км н/о +6.9 +3.7 80 +2 +2 1023.2 1021.0
З 9-10
{11}
30 км н/о +7.1 +3.9 80 +2 +2 1023.0 1020.8
З 9-10
{11}
30 км н/о +6.8 +3.7 81 +1 +1 1022.8 1020.6
З 9-11
{11}
30 км н/о +6.9 +3.4 78 +2 +2 1022.6 1020.4
ЮЗ 9-11
{11}
30 км н/о +7.0 +3.6 79 +2 +2 1022.2 1020.0 +6.7
З 10-12
{12}
30 км н/о +7.0 +3.6 79 +1 +1 1022.0 1019.8
ЮЗ 11-12
{13}
27 км н/о +6.9 +4.0 82 +1 +1 1022.2 1019.9
ЮЗ 10-12
{13}
25 км н/о +6.8 +4.1 83 +1 +1 1021.8 1019.7
ЮЗ 11-12
{13}
28 км н/о +6.9 +3.9 81 +1 +1 1021.7 1019.5
ЮЗ 11-13
{13}
30 км н/о +7.0 +4.1 82 +1 +1 1021.4 1019.2
ЮЗ 11-13
{13}
35 км н/о +7.2 +3.8 79 +1 +1 1021.0 1018.8
Местоположение метеостанции Платформа Euro Platform (Нидерланды): широта 52.00 долгота 3.28 высота над уровнем моря 18 м.
В архиве по умолчанию представлена погода на Платформе Euro Platform за последнюю неделю. Архивные данные за месяц целиком и за предыдущие месяцы, начиная с января 2011 года, Вы можете получить, выбрав интересующий диапазон дат из раскрывающегося списка и нажав кнопку "Найти!".
*Определитесь, кто Вы:
Внимание! Время в таблицах - всемирное. Для получения местного времени необходимо прибавить поправку, которая равна 1 ч.
Смотрите также архив погоды в соседних городах и на ближайших метеорологических станциях:
Партнеры нашего сайта:
Escort in paris
escort in paris
paris-escort.org

     
Пояснения к столбцам:
  • Ветер - указаны скорость ветра в м/с - средняя за 10 мин, порывы в срок и между сроками (в фигурных скобках) и направление, откуда дует ветер: С - северный,
  • СВ - северо-восточный, В - восточный, ЮВ - юго-восточный, Ю - южный, ЮЗ - юго-западный, З - западный, СЗ - северо-западный.
  • Видимость - горизонтальная дальность видимости в метрах или километрах. При видимости от 1 до 10 км при отсутствии осадков обычно наблюдается дымка, при ухудшении видимости до 1 км и менее - туман. В сухую погоду видимость может ухудшаться дымом, пылью или мглою.
  • Явления - указаны атмосферные явления, наблюдавшиеся в срок или в последний час перед сроком; фигурными скобками обозначены явления, наблюдавшиеся между сроками (за 1-3 часа до срока); квадратными скобками обозначены град или гололедные отложения с указанием их диаметра в мм.
  • Облачность - указаны через наклонную черту общая и нижняя облачность в баллах и высота нижней границы облаков в метрах; квадратными скобками обозначены формы облаков: Ci - перистые, Cs - перисто-слоистые, Cc - перисто-кучевые, Ac - высококучевые, As - высокослоистые, Sc - слоисто-кучевые, Ns - слоисто-дождевые, Cu - кучевые, Cb - кучево-дождевые. Подробнее классификацию облаков см. в Атласе облаков (PDF).
  • T - Температура воздуха - температура, измеренная на высоте 2 м над землей.
  • Td - Температура точки росы - температура, при понижении до которой содержащийся в воздухе водяной пар достигнет насыщения.
  • f - Относительная влажность воздуха - влажноcть воздуха, измеренная на высоте 2 м над землей.
  • Te - Эффективная температура - температура, которую ощущает одетый по сезону человек в тени. Характеристика душности погоды. При расчете учитывается влияние влажности воздуха и скорости ветра на теплоощущения человека.
  • Tes - Эффективная температура на солнце - температура, которую ощущает человек, с поправкой на солнечный нагрев. Характеристика знойности погоды. Зависит от высоты солнца над горизонтом, облачности и скорости ветра. Ночью, в пасмурную погоду, а также при ветре 12 м/с и более поправка равна нулю.
  • P - Атмосферное давление - приведенное к уровню моря атмосферное давление.
  • Po - Атмосферное давление - измеренное на уровне метеостанции атмосферное давление.
  • Tmin - Минимальная температура - минимум температуры воздуха на высоте 2 м над землей.
  • Tmax - Максимальная температура - максимум температуры воздуха на высоте 2 м над землей.
  • R - Количество осадков - Количество выпавших осадков за период времени, мм. При наведении курсора мыши на число - период времени, за который выпало указанное количество осадков.
  • R24 - Количество осадков - Количество выпавших осадков за 24 часа, мм.
  • S - Снежный покров - Высота снежного покрова, см. При наведении курсора мыши на число - состояние снежного покрова и степень покрытия местности в баллах.